Temp
11 11 11 11 11 11 11 11 10 10 10 10 10 10 10 9 9 9 9 9 9 9 9 9 9 8 8 8 8 8 8 7 7 7 7 7 6 6 6 6 6 6 6 6 6 6 6 5 5 5 5 5 5 5 5 5 5 4 4 4 4 4 4 3 3 3 3 3 2
11 11 11 11 11 11 11 10 10 10 10 10 10 10 9 9 9 9 9 9 9 9 9 9 8 8 8 8 8 8 7 7 7 7 7 6 6 6 6 6 6 6 6 6 6 6 5 5 5 5 5 5 5 5 5 4 4 4 4 4 4 3 3 3 3 3 2 2 2
11 11 11 11 11 11 11 10 10 10 10 10 10 10 9 9 9 9 9 9 9 9 9 9 8 8 8 8 8 8 7 7 7 7 6 6 6 6 6 6 6 6 6 5 5 5 5 5 5 5 5 5 5 4 4 4 4 4 4 3 3 3 3 3 3 2 2 2 2
11 11 11 11 11 11 11 10 10 10 10 10 10 10 9 9 9 9 9 9 9 9 9 9 8 8 8 8 8 7 7 7 7 6 6 6 6 6 6 6 6 5 5 5 5 5 5 5 5 5 5 5 4 4 4 4 4 4 3 3 3 3 3 2 2 2 2 2 2
11 11 11 11 11 11 10 10 10 10 10 10 10 9 9 9 9 9 9 9 9 9 9 8 8 8 8 8 8 7 7 7 6 6 6 6 6 6 6 6 5 5 5 5 5 5 5 5 5 5 5 4 4 4 4 4 3 3 3 3 3 2 2 2 2 2 2 2 2
11 11 11 11 11 10 10 10 10 10 10 10 10 9 9 9 9 9 9 9 9 9 9 8 8 8 8 8 7 7 7 7 6 6 6 6 6 6 6 5 5 5 5 5 5 5 5 5 5 4 4 4 4 4 3 3 3 3 3 3 2 2 2 2 2 2 2 2 1
11 11 11 11 11 10 10 10 10 10 10 10 9 9 9 9 9 9 9 9 9 9 8 8 8 8 8 8 7 7 7 6 6 6 6 6 6 6 5 5 5 5 5 5 5 5 5 5 4 4 4 4 4 3 3 3 3 3 3 2 2 2 2 2 2 2 1 1 1
11 11 11 11 10 10 10 10 10 10 10 10 9 9 9 9 9 9 9 9 9 9 8 8 8 8 8 7 7 7 7 6 6 6 6 6 6 5 5 5 5 5 5 5 5 5 5 4 4 4 4 4 3 3 3 3 3 2 2 2 2 2 2 2 2 1 1 1 1
11 11 11 11 10 10 10 10 10 10 10 9 9 9 9 9 9 9 9 9 9 8 8 8 8 8 7 7 7 7 6 6 6 6 6 6 5 5 5 5 5 5 5 5 5 5 4 4 4 4 4 3 3 3 3 2 2 2 2 2 2 2 2 2 1 1 1 1 1
11 11 11 10 10 10 10 10 10 10 10 9 9 9 9 9 9 9 9 9 8 8 8 8 8 7 7 7 7 6 6 6 6 6 6 5 5 5 5 5 5 5 5 5 4 4 4 4 4 4 3 3 3 3 2 2 2 2 2 2 2 2 2 1 1 1 1 1 1
11 11 10 10 10 10 10 10 10 10 9 9 9 9 9 9 9 9 9 9 8 8 8 8 8 7 7 7 7 6 6 6 6 6 5 5 5 5 5 5 5 5 5 5 4 4 4 4 4 3 3 3 3 2 2 2 2 2 2 2 2 2 2 1 1 1 1 1 1
11 11 10 10 10 10 10 10 10 10 9 9 9 9 9 9 9 9 9 8 8 8 8 8 7 7 7 7 6 6 6 6 6 5 5 5 5 5 5 5 5 5 5 4 4 4 4 4 3 3 3 3 2 2 2 2 2 2 2 2 1 1 1 1 1 1 1 1 1
11 10 10 10 10 10 10 10 10 9 9 9 9 9 9 9 9 9 8 8 8 8 8 7 7 7 7 6 6 6 6 6 6 5 5 5 5 5 5 5 5 5 4 4 4 4 4 3 3 3 3 3 2 2 2 2 2 2 2 1 1 1 1 1 1 1 1 1 1
10 10 10 10 10 10 10 10 10 9 9 9 9 9 9 9 9 8 8 8 8 8 7 7 7 7 6 6 6 6 6 6 5 5 5 5 5 5 5 5 5 4 4 4 4 4 3 3 3 3 2 2 2 2 2 2 1 1 1 1 1 1 1 1 1 1 1 1 1
10 10 10 10 10 10 10 10 9 9 9 9 9 9 9 9 8 8 8 8 8 7 7 7 7 7 6 6 6 6 6 5 5 5 5 5 5 5 5 5 4 4 4 4 4 3 3 3 3 2 2 2 2 2 2 1 1 1 1 1 1 1 1 1 1 1 1 1 1
10 10 10 10 10 10 10 10 9 9 9 9 9 9 9 8 8 8 8 8 7 7 7 7 7 6 6 6 6 6 5 5 5 5 5 5 5 5 5 5 4 4 4 4 3 3 3 3 2 2 2 2 2 2 1 1 1 1 1 1 1 1 1 1 1 1 0 0 0
10 10 10 10 10 10 10 10 9 9 9 9 9 8 8 8 8 8 8 7 7 7 7 7 6 6 6 6 6 5 5 5 5 5 5 5 5 5 5 4 4 4 4 4 3 3 3 3 2 2 2 2 2 1 1 1 1 1 1 1 1 1 1 1 0 0 0 0 0
10 10 10 10 10 10 10 9 9 9 9 9 8 8 8 8 8 8 7 7 7 7 7 6 6 6 6 6 5 5 5 5 5 5 5 5 5 5 4 4 4 4 4 3 3 3 3 2 2 2 2 1 1 1 1 1 1 1 1 1 1 1 0 0 0 0 0 0 0
10 10 10 10 10 10 9 9 9 9 9 8 8 8 8 8 8 7 7 7 7 7 6 6 6 6 6 5 5 5 5 5 5 5 5 5 5 5 4 4 4 4 3 3 3 3 2 2 2 2 1 1 1 1 1 1 1 1 1 1 0 0 0 0 0 0 0 -0 -0
10 10 10 10 10 9 9 9 9 8 8 8 8 8 8 8 7 7 7 7 7 7 6 6 6 6 5 5 5 5 5 5 5 5 5 5 5 4 4 4 4 3 3 3 3 2 2 2 2 2 1 1 1 1 1 1 1 0 0 0 0 0 0 0 0 0 -0 -0 -0
10 10 10 10 9 9 9 9 8 8 8 8 8 8 7 7 7 7 7 7 7 6 6 6 6 5 5 5 5 5 5 5 5 5 5 5 4 4 4 4 4 3 3 3 2 2 2 2 2 1 1 1 1 1 1 0 0 0 0 0 0 0 0 0 0 -0 -0 -0 -0
10 10 10 9 9 9 9 8 8 8 8 8 7 7 7 7 7 7 7 7 6 6 6 6 6 5 5 5 5 5 5 5 5 5 5 4 4 4 4 4 3 3 3 2 2 2 2 2 1 1 1 1 1 0 0 0 0 0 0 0 0 0 0 0 -0 -0 -0 -0 -1
10 10 9 9 9 8 8 8 8 8 8 7 7 7 7 7 7 7 7 6 6 6 6 6 5 5 5 5 5 5 5 5 5 4 4 4 4 4 4 3 3 3 2 2 2 2 2 1 1 1 1 1 1 0 0 0 0 0 0 0 0 0 0 -0 -0 -0 -1 -1 -1
9 9 9 9 8 8 8 8 8 8 7 7 7 7 7 7 7 7 6 6 6 6 5 5 5 5 5 5 4 4 4 4 4 4 4 4 4 4 3 3 3 2 2 2 2 2 1 1 1 1 1 1 0 0 0 0 0 0 0 -0 -0 -0 -0 -0 -0 -1 -1 -1 -1
9 9 9 8 8 8 8 8 8 7 7 7 7 7 7 7 6 6 6 6 6 5 5 5 5 5 4 4 4 4 4 4 4 4 4 4 4 3 3 3 2 2 2 2 2 1 1 1 1 1 1 0 0 0 0 -0 -0 -0 -0 -0 -0 -0 -0 -1 -1 -1 -1 -1 -1
9 9 8 8 8 8 8 7 7 7 7 7 7 7 7 6 6 6 6 6 5 5 5 5 5 4 4 4 4 4 4 4 4 4 4 4 3 3 3 2 2 2 2 2 1 1 1 1 1 0 0 0 -0 -0 -0 -0 -0 -1 -1 -1 -1 -1 -1 -1 -1 -1 -1 -2 -2
8 8 8 8 8 8 7 7 7 7 7 7 7 7 6 6 6 6 6 5 5 5 5 4 4 4 4 4 4 4 4 4 4 4 3 3 3 3 2 2 2 2 2 1 1 1 1 1 0 0 -0 -0 -0 -1 -1 -1 -1 -1 -1 -1 -1 -1 -1 -1 -1 -1 -2 -2 -2
8 8 8 8 8 7 7 7 7 7 7 7 7 6 6 6 6 6 5 5 5 5 4 4 4 4 4 4 4 4 4 4 4 3 3 3 3 2 2 2 2 2 2 1 1 1 1 1 0 0 -0 -0 -1 -1 -1 -1 -1 -1 -1 -1 -1 -1 -1 -1 -2 -2 -2 -2 -2
8 8 8 8 7 7 7 7 7 7 7 6 6 6 6 6 6 5 5 5 5 4 4 4 4 4 4 4 4 4 4 4 3 3 3 3 2 2 2 2 2 2 1 1 1 1 1 0 0 0 -0 -0 -1 -1 -1 -1 -1 -1 -1 -1 -1 -1 -1 -2 -2 -2 -2 -2 -2
8 8 7 7 7 7 7 7 7 7 6 6 6 6 6 6 5 5 5 5 4 4 4 4 4 4 4 4 4 4 4 3 3 3 3 2 2 2 2 2 2 1 1 1 1 1 0 0 0 -0 -0 -1 -1 -1 -1 -1 -1 -1 -1 -1 -1 -2 -2 -2 -2 -2 -2 -2 -3
7 7 7 7 7 7 7 7 7 6 6 6 6 6 6 5 5 5 5 4 4 4 4 4 4 4 4 4 4 4 3 3 3 3 2 2 2 2 2 2 1 1 1 1 1 0 0 0 -0 -0 -0 -1 -1 -1 -1 -1 -1 -1 -1 -2 -2 -2 -2 -2 -2 -2 -2 -3 -3
7 7 7 7 7 7 7 7 6 6 6 6 6 6 5 5 5 5 4 4 4 4 4 4 4 4 4 4 4 3 3 3 3 2 2 2 2 2 1 1 1 1 1 1 0 0 0 -0 -0 -0 -1 -1 -1 -1 -1 -1 -2 -2 -2 -2 -2 -2 -2 -2 -2 -2 -2 -3 -3
7 7 7 7 7 7 6 6 6 6 6 6 6 5 5 5 4 4 4 4 4 4 4 4 4 4 4 4 3 3 3 3 2 2 2 2 2 1 1 1 1 1 1 1 0 0 -0 -0 -0 -1 -1 -1 -1 -1 -2 -2 -2 -2 -2 -2 -2 -2 -2 -2 -2 -2 -3 -3 -3
7 7 7 7 7 6 6 6 6 6 6 5 5 5 5 4 4 4 4 4 4 4 4 4 4 4 4 3 3 3 3 2 2 2 2 1 1 1 1 1 1 1 1 0 0 0 -0 -0 -1 -1 -1 -1 -1 -2 -2 -2 -2 -2 -2 -2 -2 -2 -2 -2 -2 -2 -3 -3 -3
7 7 7 6 6 6 6 6 6 6 5 5 5 5 4 4 4 4 4 4 4 4 4 4 4 3 3 3 3 2 2 2 2 2 1 1 1 1 1 1 1 1 0 0 0 -0 -0 -1 -1 -1 -1 -1 -2 -2 -2 -2 -2 -2 -2 -2 -2 -2 -2 -2 -2 -3 -3 -3 -3
7 6 6 6 6 6 6 6 5 5 5 5 4 4 4 4 4 4 4 4 4 4 4 4 3 3 3 3 2 2 2 2 1 1 1 1 1 1 1 1 1 1 0 0 -0 -0 -0 -1 -1 -1 -1 -2 -2 -2 -2 -2 -2 -2 -2 -2 -2 -2 -2 -2 -2 -3 -3 -3 -3
6 6 6 6 6 6 6 5 5 5 5 4 4 4 4 4 4 4 4 4 4 4 3 3 3 3 2 2 2 2 2 1 1 1 1 1 1 1 1 0 1 1 0 0 -0 -0 -1 -1 -1 -1 -1 -2 -2 -2 -2 -2 -2 -2 -2 -2 -2 -2 -2 -2 -2 -3 -3 -3 -4
6 6 6 6 6 5 5 5 5 5 4 4 4 4 4 4 4 4 4 4 4 3 3 3 3 2 2 2 2 1 1 1 1 1 1 1 1 0 0 0 0 0 0 0 -0 -0 -1 -1 -1 -1 -2 -2 -2 -2 -2 -2 -2 -2 -2 -2 -2 -2 -2 -2 -2 -3 -3 -3 -4
6 6 6 5 5 5 5 5 4 4 4 4 4 4 4 4 4 4 4 3 3 3 3 2 2 2 2 1 1 1 1 1 1 1 1 0 0 0 0 0 0 0 0 0 -0 -0 -1 -1 -1 -1 -2 -2 -2 -2 -2 -2 -2 -2 -2 -2 -2 -2 -2 -3 -3 -3 -3 -3 -4
6 5 5 5 5 5 5 4 4 4 4 4 4 4 4 4 4 4 3 3 3 2 2 2 2 2 1 1 1 1 1 1 1 1 0 0 0 0 0 -0 0 0 0 0 -0 -1 -1 -1 -1 -1 -2 -2 -2 -2 -2 -2 -3 -3 -2 -2 -2 -2 -3 -3 -3 -3 -3 -3 -4
5 5 5 5 5 4 4 4 4 4 4 4 4 4 4 4 3 3 3 3 2 2 2 2 1 1 1 1 1 1 1 1 1 0 0 0 0 0 -0 -0 -0 0 0 -0 -0 -1 -1 -1 -1 -1 -2 -2 -2 -3 -3 -3 -3 -3 -3 -3 -3 -3 -3 -3 -3 -3 -4 -4 -4
Height
1549 1550 1551 1552 1552 1553 1554 1555 1556 1557 1558 1558 1559 1560 1560 1561 1562 1562 1562 1562 1562 1562 1562 1562 1562 1561 1561 1561 1561 1560 1560 1560 1559 1559 1558 1558 1557 1557 1556 1556 1555 1555 1554 1553 1553 1552 1551 1550 1549 1548 1547 1547 1546 1544 1543 1542 1541 1540 1539 1538 1537 1537 1536 1535 1534 1533 1532 1531 1530
1547 1548 1550 1551 1552 1552 1553 1554 1555 1556 1557 1557 1558 1559 1559 1560 1560 1561 1561 1561 1561 1561 1561 1560 1560 1560 1560 1559 1559 1559 1559 1558 1558 1557 1557 1556 1556 1556 1555 1554 1554 1553 1553 1552 1551 1550 1549 1548 1547 1547 1546 1544 1544 1542 1542 1540 1540 1539 1538 1537 1536 1535 1534 1533 1532 1531 1530 1529 1528
1547 1547 1548 1549 1550 1551 1552 1553 1554 1555 1556 1556 1557 1557 1558 1559 1559 1559 1559 1559 1559 1559 1559 1559 1559 1558 1558 1558 1558 1557 1557 1557 1556 1556 1555 1555 1554 1554 1553 1553 1552 1552 1551 1550 1549 1548 1547 1547 1546 1545 1544 1543 1542 1541 1540 1539 1538 1537 1536 1535 1534 1533 1532 1531 1530 1529 1528 1527 1527
1545 1546 1547 1548 1549 1550 1551 1552 1553 1554 1554 1555 1556 1557 1557 1557 1558 1558 1558 1558 1558 1558 1558 1557 1557 1557 1557 1557 1557 1556 1556 1555 1555 1554 1554 1553 1553 1552 1552 1552 1551 1550 1549 1548 1547 1547 1546 1545 1544 1543 1542 1541 1540 1539 1538 1537 1536 1535 1534 1533 1532 1532 1531 1529 1528 1527 1527 1526 1525
1544 1545 1546 1547 1548 1549 1550 1551 1552 1553 1553 1554 1555 1555 1556 1556 1556 1557 1557 1557 1557 1557 1556 1556 1556 1556 1555 1555 1555 1555 1554 1554 1553 1553 1552 1552 1552 1551 1551 1550 1549 1548 1547 1546 1545 1544 1544 1543 1542 1541 1540 1539 1538 1537 1536 1535 1534 1533 1533 1532 1531 1530 1529 1527 1527 1526 1525 1523 1522
1543 1544 1545 1547 1547 1548 1549 1550 1551 1552 1552 1553 1553 1554 1554 1555 1555 1555 1555 1555 1555 1555 1555 1555 1554 1554 1554 1554 1553 1553 1553 1552 1552 1552 1551 1551 1550 1550 1549 1548 1547 1547 1546 1544 1543 1542 1542 1541 1540 1539 1538 1537 1536 1535 1534 1533 1532 1532 1531 1530 1529 1528 1527 1526 1525 1524 1523 1522 1521
1542 1543 1544 1545 1546 1547 1548 1549 1550 1551 1551 1552 1552 1552 1553 1553 1553 1553 1554 1554 1554 1553 1553 1553 1553 1552 1552 1552 1552 1552 1551 1551 1550 1550 1550 1549 1549 1548 1547 1547 1546 1545 1544 1543 1542 1541 1540 1539 1538 1537 1536 1535 1534 1533 1532 1532 1531 1530 1529 1528 1527 1526 1525 1524 1523 1522 1521 1520 1519
1542 1542 1543 1544 1545 1546 1547 1548 1548 1549 1550 1550 1551 1551 1551 1552 1552 1552 1552 1552 1552 1552 1552 1552 1551 1551 1551 1551 1550 1550 1550 1549 1549 1548 1548 1548 1547 1547 1546 1545 1544 1543 1542 1541 1540 1539 1538 1537 1536 1536 1535 1534 1533 1532 1531 1530 1529 1528 1527 1526 1525 1524 1523 1522 1521 1520 1519 1518 1517
1540 1541 1542 1543 1544 1545 1546 1547 1547 1548 1548 1549 1549 1550 1550 1550 1550 1551 1551 1551 1551 1550 1550 1550 1550 1549 1549 1549 1549 1548 1548 1548 1547 1547 1547 1546 1546 1545 1544 1543 1542 1542 1540 1539 1538 1537 1536 1535 1534 1534 1533 1532 1531 1530 1529 1528 1527 1526 1525 1524 1523 1522 1522 1521 1519 1518 1517 1516 1515
1539 1540 1541 1542 1543 1544 1545 1545 1546 1547 1547 1547 1548 1548 1548 1549 1549 1549 1549 1549 1549 1549 1548 1548 1548 1548 1548 1547 1547 1547 1547 1546 1546 1546 1545 1545 1544 1543 1543 1542 1541 1540 1539 1537 1536 1535 1534 1533 1532 1532 1531 1530 1529 1528 1527 1526 1525 1524 1523 1522 1521 1521 1520 1519 1518 1517 1515 1514 1513
1538 1539 1540 1541 1542 1542 1543 1544 1545 1545 1546 1546 1546 1547 1547 1547 1547 1547 1547 1547 1547 1547 1547 1547 1547 1546 1546 1546 1546 1545 1545 1545 1544 1544 1544 1543 1542 1542 1541 1540 1539 1538 1537 1536 1534 1533 1532 1532 1531 1530 1529 1528 1527 1526 1525 1524 1523 1522 1521 1520 1519 1519 1518 1517 1516 1515 1513 1512 1511
1537 1537 1538 1539 1540 1541 1542 1542 1543 1544 1544 1544 1545 1545 1545 1546 1546 1546 1546 1546 1546 1545 1545 1545 1545 1545 1545 1544 1544 1544 1543 1543 1543 1542 1542 1541 1541 1540 1539 1538 1537 1536 1535 1533 1532 1531 1530 1529 1528 1527 1527 1526 1525 1524 1523 1522 1521 1520 1519 1518 1517 1517 1516 1515 1514 1513 1512 1511 1509
1535 1536 1537 1538 1539 1540 1540 1541 1542 1542 1542 1543 1543 1543 1544 1544 1544 1544 1544 1544 1544 1544 1544 1543 1543 1543 1543 1543 1542 1542 1542 1542 1541 1541 1540 1539 1538 1538 1537 1536 1535 1534 1532 1531 1530 1529 1528 1527 1526 1525 1525 1524 1523 1522 1521 1520 1519 1518 1517 1517 1516 1515 1514 1513 1512 1511 1510 1509 1507
1534 1535 1536 1537 1537 1538 1539 1539 1540 1541 1541 1541 1542 1542 1542 1542 1542 1542 1542 1542 1542 1542 1542 1542 1542 1542 1542 1541 1541 1541 1540 1540 1539 1539 1538 1537 1537 1536 1535 1534 1532 1532 1530 1529 1528 1527 1526 1525 1524 1523 1522 1522 1521 1520 1519 1518 1517 1516 1515 1515 1514 1513 1512 1511 1510 1509 1508 1507 1506
1532 1533 1534 1535 1536 1537 1537 1538 1538 1539 1539 1540 1540 1540 1541 1541 1541 1541 1541 1541 1541 1541 1541 1541 1540 1540 1540 1540 1539 1539 1538 1538 1537 1537 1536 1535 1534 1533 1532 1532 1530 1529 1528 1527 1526 1525 1524 1523 1522 1522 1521 1520 1519 1518 1517 1517 1516 1515 1514 1513 1512 1511 1510 1509 1508 1507 1506 1505 1503
1531 1532 1533 1534 1534 1535 1536 1536 1537 1537 1538 1538 1538 1539 1539 1539 1539 1539 1539 1539 1539 1539 1539 1539 1539 1538 1538 1538 1537 1537 1537 1536 1536 1535 1534 1533 1532 1531 1530 1529 1528 1527 1526 1525 1524 1523 1522 1522 1521 1520 1519 1518 1517 1516 1516 1515 1514 1513 1512 1511 1510 1509 1508 1507 1506 1505 1504 1502 1502
1529 1530 1531 1532 1533 1533 1534 1535 1535 1536 1536 1537 1537 1537 1537 1538 1538 1538 1538 1538 1538 1538 1537 1537 1537 1537 1537 1536 1536 1535 1535 1534 1533 1533 1532 1531 1530 1529 1528 1527 1526 1525 1524 1523 1522 1522 1521 1520 1519 1518 1517 1516 1515 1514 1513 1512 1512 1511 1510 1509 1508 1507 1506 1505 1504 1503 1502 1501 1499
1528 1529 1530 1531 1531 1532 1532 1533 1534 1534 1535 1535 1535 1536 1536 1536 1536 1536 1537 1536 1536 1536 1536 1536 1535 1535 1535 1534 1534 1533 1533 1532 1532 1531 1530 1529 1528 1527 1526 1525 1524 1523 1522 1521 1521 1520 1519 1518 1517 1516 1515 1514 1513 1512 1511 1511 1510 1509 1508 1507 1506 1505 1504 1503 1502 1501 1500 1498 1497
1526 1527 1528 1529 1530 1530 1531 1532 1532 1532 1533 1533 1534 1534 1534 1535 1535 1535 1535 1535 1535 1535 1534 1534 1534 1533 1533 1532 1532 1531 1531 1530 1529 1528 1528 1527 1526 1525 1524 1523 1522 1521 1520 1519 1518 1518 1517 1516 1515 1514 1513 1512 1511 1510 1509 1508 1507 1507 1506 1505 1504 1503 1502 1501 1500 1499 1498 1497 1495
1525 1526 1527 1527 1528 1529 1530 1530 1531 1531 1532 1532 1532 1533 1533 1533 1533 1533 1533 1533 1533 1533 1533 1532 1532 1532 1531 1531 1530 1529 1529 1528 1527 1527 1526 1525 1524 1523 1522 1521 1520 1519 1518 1517 1517 1516 1515 1514 1513 1512 1511 1510 1509 1508 1507 1506 1505 1504 1504 1503 1502 1501 1500 1499 1498 1497 1496 1494 1493
1524 1525 1526 1526 1527 1527 1528 1529 1529 1530 1530 1531 1531 1531 1532 1532 1532 1532 1532 1532 1532 1531 1531 1531 1530 1530 1529 1529 1528 1527 1527 1526 1525 1524 1523 1522 1522 1521 1520 1519 1518 1517 1516 1516 1515 1514 1513 1512 1511 1510 1509 1508 1507 1506 1505 1504 1503 1502 1502 1501 1500 1499 1498 1497 1496 1495 1493 1492 1491
1522 1523 1524 1525 1526 1526 1527 1527 1528 1528 1529 1529 1529 1530 1530 1530 1530 1530 1530 1530 1530 1529 1529 1529 1528 1528 1527 1527 1526 1526 1525 1524 1523 1522 1521 1520 1519 1518 1517 1517 1516 1515 1514 1513 1512 1512 1511 1510 1509 1508 1507 1506 1505 1504 1503 1502 1501 1500 1499 1498 1497 1497 1496 1495 1494 1492 1491 1490 1489
1521 1522 1523 1523 1524 1525 1526 1526 1527 1527 1527 1528 1528 1528 1528 1528 1528 1528 1528 1528 1528 1528 1527 1527 1527 1526 1526 1525 1524 1523 1523 1522 1521 1520 1519 1518 1517 1517 1516 1515 1514 1513 1512 1511 1510 1509 1508 1507 1507 1506 1505 1504 1502 1502 1501 1500 1499 1497 1497 1496 1495 1494 1493 1492 1491 1490 1489 1488 1487
1520 1521 1521 1522 1523 1523 1524 1525 1525 1526 1526 1527 1527 1527 1527 1527 1527 1527 1527 1527 1526 1526 1526 1525 1525 1524 1523 1523 1522 1521 1521 1520 1519 1518 1517 1516 1515 1514 1513 1512 1512 1511 1510 1509 1508 1507 1506 1505 1504 1503 1502 1501 1500 1499 1498 1497 1496 1495 1494 1493 1492 1491 1490 1490 1489 1488 1487 1485 1484
1519 1519 1520 1521 1522 1522 1523 1524 1524 1525 1525 1525 1525 1525 1525 1525 1525 1525 1525 1525 1524 1524 1524 1523 1522 1522 1521 1521 1520 1519 1518 1517 1517 1516 1515 1514 1513 1512 1512 1511 1510 1509 1508 1507 1506 1505 1504 1503 1502 1501 1499 1498 1497 1496 1495 1494 1493 1492 1492 1490 1489 1488 1487 1487 1486 1485 1484 1483 1482
1517 1518 1519 1520 1521 1521 1522 1522 1523 1523 1524 1524 1524 1524 1524 1524 1524 1524 1523 1523 1523 1522 1522 1521 1521 1520 1519 1518 1517 1517 1516 1515 1514 1513 1513 1512 1511 1510 1509 1508 1508 1507 1506 1505 1504 1503 1502 1501 1500 1498 1497 1496 1495 1494 1492 1492 1491 1490 1489 1488 1487 1486 1485 1484 1483 1482 1481 1480 1479
1516 1517 1518 1519 1520 1520 1521 1522 1522 1522 1522 1522 1522 1522 1522 1522 1522 1522 1522 1522 1521 1520 1520 1519 1518 1517 1517 1516 1515 1514 1514 1513 1512 1511 1510 1509 1509 1508 1507 1506 1506 1505 1504 1503 1502 1501 1500 1499 1498 1497 1496 1494 1493 1492 1490 1489 1488 1487 1487 1486 1485 1484 1482 1482 1480 1479 1478 1477 1477
1515 1516 1517 1518 1519 1519 1520 1520 1521 1521 1521 1521 1521 1521 1521 1521 1521 1521 1520 1520 1519 1518 1518 1517 1516 1515 1515 1514 1513 1512 1512 1511 1510 1509 1508 1507 1506 1505 1505 1504 1503 1503 1502 1501 1500 1499 1498 1497 1496 1495 1494 1492 1491 1489 1488 1487 1486 1485 1484 1483 1482 1482 1480 1479 1478 1477 1476 1475 1474
1515 1516 1517 1517 1518 1518 1519 1519 1519 1519 1520 1520 1520 1520 1520 1519 1519 1519 1518 1517 1517 1516 1516 1515 1514 1513 1512 1512 1511 1510 1509 1508 1507 1507 1506 1504 1504 1503 1502 1502 1501 1501 1500 1499 1497 1497 1495 1494 1493 1493 1492 1491 1489 1487 1486 1485 1484 1483 1482 1481 1480 1479 1478 1477 1476 1475 1474 1472 1472
1514 1515 1516 1516 1517 1517 1517 1518 1518 1518 1518 1518 1518 1518 1518 1517 1517 1517 1516 1516 1515 1514 1513 1512 1512 1511 1510 1509 1508 1507 1507 1506 1505 1504 1503 1502 1501 1501 1500 1499 1499 1498 1497 1497 1496 1494 1493 1492 1491 1490 1489 1488 1487 1486 1484 1483 1482 1481 1480 1479 1478 1477 1476 1475 1474 1473 1472 1470 1469
1513 1514 1515 1515 1516 1516 1516 1516 1517 1517 1517 1517 1517 1516 1516 1516 1515 1515 1514 1513 1512 1512 1511 1510 1509 1508 1508 1507 1506 1505 1504 1504 1503 1502 1501 1500 1499 1498 1498 1497 1497 1496 1495 1494 1493 1492 1491 1490 1489 1488 1487 1486 1485 1483 1482 1481 1479 1478 1477 1477 1476 1475 1474 1473 1472 1471 1469 1468 1467
1512 1513 1513 1514 1514 1515 1515 1515 1515 1515 1515 1515 1515 1515 1514 1514 1513 1512 1512 1511 1510 1509 1509 1508 1507 1506 1505 1504 1504 1503 1502 1501 1501 1500 1499 1498 1497 1496 1495 1495 1494 1494 1493 1492 1491 1490 1488 1487 1487 1485 1484 1483 1482 1481 1479 1478 1477 1476 1475 1474 1473 1472 1472 1471 1469 1468 1467 1466 1465
1511 1512 1512 1513 1513 1513 1513 1513 1513 1513 1513 1513 1513 1512 1512 1512 1511 1510 1509 1509 1508 1507 1506 1506 1505 1504 1503 1502 1501 1500 1500 1499 1498 1497 1497 1496 1495 1494 1493 1492 1492 1492 1491 1490 1488 1487 1486 1485 1484 1483 1482 1481 1480 1478 1477 1476 1475 1474 1473 1472 1471 1470 1469 1468 1467 1466 1465 1464 1462
1510 1511 1511 1512 1512 1512 1512 1512 1512 1512 1512 1512 1511 1511 1510 1509 1509 1508 1507 1507 1506 1505 1504 1503 1502 1501 1501 1500 1499 1498 1497 1497 1496 1495 1494 1493 1492 1491 1491 1490 1489 1489 1488 1487 1486 1485 1484 1482 1482 1481 1479 1478 1477 1476 1474 1473 1472 1471 1470 1469 1468 1467 1467 1466 1465 1463 1462 1461 1460
1509 1510 1510 1510 1510 1511 1511 1511 1511 1510 1510 1510 1509 1508 1508 1507 1507 1506 1505 1504 1503 1502 1502 1501 1500 1499 1498 1497 1497 1496 1495 1494 1493 1493 1492 1491 1490 1489 1488 1487 1487 1487 1486 1485 1483 1482 1481 1480 1479 1478 1477 1476 1474 1473 1472 1471 1470 1468 1467 1467 1466 1465 1464 1463 1462 1461 1460 1459 1458
1508 1508 1509 1509 1509 1509 1509 1509 1509 1508 1508 1507 1507 1507 1506 1505 1504 1503 1503 1502 1501 1500 1499 1498 1497 1497 1496 1495 1494 1493 1492 1492 1491 1490 1489 1489 1488 1487 1486 1485 1484 1484 1483 1482 1481 1480 1479 1477 1477 1476 1474 1473 1472 1470 1469 1468 1467 1466 1465 1464 1463 1462 1461 1461 1459 1458 1457 1456 1455
1507 1507 1507 1508 1508 1508 1508 1507 1507 1507 1506 1506 1505 1504 1504 1503 1502 1501 1500 1499 1498 1497 1497 1496 1495 1494 1493 1492 1492 1491 1490 1489 1488 1487 1487 1486 1485 1484 1483 1482 1481 1481 1481 1480 1479 1477 1476 1475 1474 1473 1472 1470 1469 1467 1466 1465 1464 1463 1462 1461 1460 1459 1459 1458 1457 1456 1455 1454 1453
1506 1506 1507 1507 1507 1506 1506 1506 1505 1505 1504 1504 1503 1502 1502 1501 1500 1499 1498 1497 1496 1495 1494 1493 1492 1492 1491 1490 1489 1488 1487 1487 1486 1485 1484 1484 1483 1482 1480 1479 1478 1478 1478 1477 1476 1475 1473 1472 1472 1471 1469 1468 1466 1465 1463 1462 1461 1460 1459 1458 1457 1456 1456 1455 1454 1453 1452 1451 1450
1505 1505 1505 1505 1505 1505 1504 1504 1503 1503 1502 1502 1501 1500 1499 1498 1497 1497 1496 1495 1494 1492 1492 1491 1490 1489 1488 1487 1487 1486 1485 1484 1484 1483 1482 1481 1480 1479 1478 1476 1475 1475 1475 1474 1473 1472 1471 1470 1469 1468 1467 1465 1464 1462 1461 1460 1458 1457 1456 1456 1454 1453 1452 1452 1451 1450 1449 1448 1447
1504 1504 1504 1504 1503 1503 1502 1502 1502 1501 1500 1500 1499 1498 1497 1496 1495 1494 1493 1492 1491 1490 1489 1488 1487 1487 1486 1485 1484 1483 1482 1482 1481 1481 1480 1478 1477 1477 1475 1474 1472 1472 1472 1471 1470 1469 1468 1467 1466 1465 1464 1463 1461 1460 1458 1457 1456 1455 1453 1453 1452 1451 1450 1449 1448 1447 1446 1445 1444
1502 1502 1502 1502 1502 1501 1501 1500 1500 1499 1498 1497 1497 1496 1495 1494 1493 1492 1491 1490 1489 1487 1487 1486 1485 1484 1483 1482 1481 1480 1479 1479 1478 1478 1477 1476 1475 1474 1473 1472 1470 1469 1469 1468 1467 1467 1465 1464 1463 1462 1462 1460 1458 1457 1456 1455 1453 1452 1451 1450 1449 1448 1447 1446 1445 1444 1443 1442 1442
Wind_Speed
29 29 29 29 29 29 28 28 27 26 24 23 22 21 20 18 17 16 16 15 15 16 16 16 16 16 17 17 17 18 18 18 18 18 18 18 18 18 18 19 20 21 22 23 25 26 27 28 28 29 30 30 30 30 30 30 30 30 30 29 29 29 29 28 28 27 27 27 26
30 30 30 29 29 29 29 28 27 25 24 23 22 20 19 18 17 16 16 16 16 16 16 17 17 17 17 18 18 18 18 18 18 18 18 18 18 18 19 19 20 22 23 25 26 27 28 29 29 30 30 30 30 30 30 30 29 29 29 29 28 28 28 27 27 26 26 26 26
31 31 31 30 30 30 29 28 27 25 24 23 21 20 19 18 17 17 17 17 17 17 17 17 17 17 17 18 18 18 18 18 18 18 18 18 18 19 19 20 22 23 25 26 27 28 29 29 30 30 30 30 30 30 29 29 29 29 28 28 28 27 27 26 26 26 26 26 26
32 32 31 31 31 30 29 28 27 25 24 22 21 20 19 18 18 18 18 18 18 18 18 18 18 18 18 18 18 18 18 18 18 18 18 18 19 19 20 21 23 25 26 27 28 29 29 30 30 30 30 30 29 29 29 29 28 28 28 27 27 26 26 26 26 26 26 26 26
33 32 32 31 30 29 29 27 26 25 23 22 21 20 19 19 19 18 18 18 18 19 19 18 18 18 18 18 18 18 18 18 18 18 18 19 19 20 21 23 24 26 27 28 29 29 30 30 30 30 30 30 29 29 29 28 28 27 27 27 26 26 26 26 26 26 26 26 26
33 32 32 31 30 29 28 27 25 24 23 22 21 20 20 20 20 19 19 19 19 19 19 19 19 19 19 18 19 19 19 19 19 19 19 19 20 21 22 24 25 27 28 29 30 30 30 30 30 30 30 29 29 29 28 28 27 27 27 26 26 26 26 26 26 26 26 27 27
33 32 31 30 30 28 27 26 25 24 23 22 22 21 21 21 20 20 20 20 20 20 20 20 19 19 19 19 19 19 19 19 19 19 19 20 21 22 23 25 26 28 29 29 30 30 30 30 30 30 29 29 28 28 28 28 27 27 26 26 26 25 26 26 26 26 27 27 28
32 31 31 30 29 28 27 26 25 24 23 23 22 22 21 21 21 21 21 21 21 21 20 20 19 19 19 19 19 19 19 19 19 20 20 21 22 23 24 26 27 28 29 30 30 30 30 30 30 29 29 29 28 28 27 27 27 27 26 26 26 26 26 26 26 27 27 28 28
32 31 30 29 29 28 27 26 25 24 23 23 22 22 22 22 22 22 22 22 22 21 21 20 20 20 20 20 20 20 20 20 20 20 21 22 23 24 25 26 28 29 29 30 30 30 30 30 29 29 29 28 28 28 27 27 27 27 27 26 26 26 26 26 27 27 28 28 29
32 31 30 29 28 27 27 26 25 24 24 23 23 23 23 23 23 23 23 23 22 22 21 21 20 20 20 20 20 20 20 20 20 21 22 23 24 25 26 27 28 29 29 30 30 30 30 30 29 29 28 28 28 27 27 27 27 27 27 27 27 27 27 27 27 28 28 29 29
32 31 30 29 28 27 26 25 25 24 24 24 24 23 23 23 23 23 23 23 23 22 21 21 20 20 20 20 20 20 20 21 21 22 23 24 25 26 27 28 29 29 30 30 30 30 30 30 29 29 28 28 28 27 27 27 27 27 27 27 27 27 27 27 27 28 29 29 30
31 30 29 28 27 26 26 25 25 25 24 24 24 24 24 24 24 24 24 23 23 22 22 21 20 20 20 20 20 21 21 21 22 23 23 25 26 27 28 29 29 30 30 30 30 30 30 30 29 29 28 28 28 27 27 27 27 27 27 27 27 28 28 28 28 28 29 30 30
31 30 29 28 27 26 25 25 25 25 25 24 24 24 24 24 24 24 24 23 22 22 22 21 21 20 20 21 21 21 21 22 23 23 24 25 26 27 28 29 30 30 30 30 30 30 30 29 29 29 28 28 28 27 27 27 27 28 28 28 28 28 28 28 28 29 29 30 30
30 29 28 27 27 26 25 25 25 25 25 25 25 24 24 24 24 24 23 23 22 22 21 21 21 21 21 21 21 22 22 23 24 24 25 26 27 28 29 30 30 30 30 30 30 30 30 29 29 29 29 28 28 27 27 27 27 28 28 28 28 28 28 29 29 29 29 30 30
30 29 28 27 26 26 25 25 25 25 25 25 25 25 24 24 24 24 23 23 22 22 21 21 21 21 21 21 22 22 23 24 24 25 26 27 28 29 30 30 30 31 31 30 30 30 30 29 29 29 29 28 28 28 27 27 27 28 28 28 28 29 29 29 29 29 30 30 30
30 29 28 27 26 26 26 25 25 25 25 25 25 24 24 24 24 23 23 23 22 22 21 21 21 21 21 22 23 23 24 25 25 26 27 28 29 30 30 31 31 31 31 31 30 30 29 29 29 29 29 28 28 28 27 27 27 28 28 28 29 29 29 29 29 30 30 30 30
30 29 28 27 26 26 26 25 25 25 25 25 24 24 24 24 23 23 23 23 22 22 21 21 21 22 22 23 24 24 25 25 26 27 28 29 29 30 31 31 31 31 31 31 30 30 29 29 29 29 29 28 28 28 28 28 28 28 28 28 29 29 29 29 29 30 30 30 30
29 28 27 26 26 25 25 25 25 25 25 24 24 24 23 23 23 23 23 23 22 22 21 21 22 22 23 24 24 25 26 26 27 28 29 29 30 31 31 31 31 31 31 31 30 30 29 29 29 29 28 28 28 28 28 28 28 28 28 29 29 29 29 29 29 30 30 30 30
29 28 27 26 25 25 25 25 25 24 24 24 24 23 23 23 23 23 23 23 22 22 22 22 22 23 24 24 25 26 26 27 28 29 29 30 31 31 32 32 32 32 31 31 30 30 29 29 29 28 28 28 28 28 28 28 29 29 29 29 29 29 29 29 30 30 30 30 30
29 27 26 25 25 25 25 25 24 24 24 24 23 23 23 23 23 23 23 22 22 22 22 22 23 24 25 25 26 27 27 28 29 29 30 31 32 32 32 32 32 31 31 31 30 30 29 29 29 28 28 28 28 28 29 29 29 29 29 29 30 30 30 30 30 30 30 30 31
28 26 25 24 24 24 24 24 24 24 24 23 23 23 23 24 23 23 23 22 22 22 23 23 24 25 25 26 27 27 28 29 29 30 31 32 32 32 32 32 32 32 31 30 30 30 29 29 29 29 28 29 29 29 29 29 29 30 30 30 30 30 30 30 30 30 30 30 31
26 25 24 24 24 24 24 24 24 24 23 23 23 23 24 24 23 23 23 23 23 23 24 24 25 25 26 27 27 28 29 29 30 31 32 32 32 33 33 32 32 31 31 30 30 30 29 29 29 29 29 29 29 29 29 30 30 30 30 30 31 30 30 30 30 30 31 31 31
25 25 24 24 24 24 24 24 24 24 23 23 24 24 24 24 23 23 23 23 23 24 24 25 26 26 27 27 28 28 29 30 31 32 32 33 33 33 33 32 32 31 31 30 30 30 29 29 29 29 29 29 29 30 30 30 30 31 31 31 31 31 31 31 31 31 31 31 31
25 25 25 25 24 24 24 24 24 23 23 24 24 24 24 24 23 23 23 24 24 25 25 26 27 27 28 28 29 29 30 31 32 32 33 33 33 33 33 32 32 31 30 30 30 30 30 30 30 30 30 30 30 30 30 31 31 31 31 32 32 32 32 31 31 31 31 31 31
25 25 25 25 24 24 24 24 23 24 24 24 24 24 23 23 23 23 24 24 25 25 26 27 27 28 28 29 29 30 31 32 33 33 33 33 33 33 32 32 31 31 30 30 30 30 30 30 30 30 30 31 31 31 31 31 31 31 32 32 32 32 32 32 32 32 32 32 32
25 25 25 24 24 24 24 23 23 23 24 24 24 23 23 23 23 24 24 25 26 26 27 27 28 28 29 29 30 31 32 33 33 34 34 34 33 33 32 31 31 31 30 30 30 30 30 30 30 30 30 31 31 31 32 32 32 32 32 32 32 32 32 33 33 32 32 32 32
25 25 24 24 23 23 23 23 23 23 24 23 23 23 23 23 24 24 25 25 26 27 27 28 28 29 30 30 31 32 33 34 34 34 34 34 33 33 32 31 31 30 30 30 30 30 30 30 30 30 30 31 31 31 32 32 32 32 32 32 32 32 32 33 33 33 33 33 32
25 24 23 23 23 23 23 23 23 23 23 23 23 23 23 24 24 25 25 26 27 27 28 28 29 30 30 31 32 33 34 34 34 34 34 34 33 33 32 31 31 30 30 30 30 30 30 30 30 30 30 30 31 31 32 32 32 32 32 32 33 33 33 33 33 33 33 33 33
23 23 23 23 22 23 23 23 23 23 23 23 23 23 24 24 25 25 26 26 27 27 28 29 30 31 32 33 33 34 35 35 35 34 34 34 33 33 32 32 31 31 30 30 30 30 30 30 30 30 30 30 31 32 32 32 32 32 33 33 33 33 33 33 33 33 33 34 33
22 22 22 22 22 22 22 23 23 23 23 23 23 24 24 25 25 26 26 27 27 28 29 30 31 32 33 34 34 35 35 35 35 34 34 34 33 33 32 32 31 31 30 30 30 30 30 31 31 31 31 31 31 31 32 32 33 33 33 33 33 33 33 33 33 33 33 33 33
21 21 21 22 22 22 22 22 22 22 22 23 23 24 25 25 26 26 27 27 28 29 30 31 32 33 34 35 35 35 35 35 35 34 34 34 33 33 32 32 31 31 30 30 30 30 31 31 31 31 31 31 31 31 32 32 33 33 33 33 33 33 33 33 33 33 33 33 33
21 21 21 21 21 21 22 22 22 22 23 23 24 25 25 26 26 27 27 28 29 30 31 32 33 34 35 35 36 36 35 35 35 34 34 34 33 33 33 32 31 31 30 30 30 30 31 31 31 31 31 31 31 32 32 33 33 33 33 33 33 33 33 33 33 33 33 33 33
20 20 20 21 21 21 21 21 22 22 23 24 25 25 26 26 27 27 28 29 30 31 32 33 34 35 35 36 36 36 35 35 35 34 34 33 33 33 33 32 32 31 30 30 30 31 31 31 31 31 31 32 32 32 33 33 33 33 34 34 33 33 33 33 33 33 33 33 32
19 20 20 20 20 20 21 21 22 23 24 24 25 26 26 27 27 28 29 30 31 32 33 34 35 36 36 36 36 36 35 35 34 34 33 33 33 33 33 32 32 31 30 30 30 31 31 31 31 32 32 32 32 33 33 34 34 34 34 34 34 33 33 33 33 33 33 32 32
19 19 19 19 20 20 21 22 23 24 24 25 26 26 27 27 28 29 30 31 33 34 35 35 36 36 36 36 36 35 35 35 34 34 33 33 33 33 33 32 32 31 30 30 30 31 31 31 31 32 32 32 33 33 34 34 34 34 34 34 34 34 33 33 33 33 32 32 31
18 18 19 19 20 20 21 22 23 24 25 26 26 27 28 28 29 31 32 33 34 35 35 36 36 36 36 35 35 35 35 34 34 34 33 33 33 33 33 33 32 31 30 30 30 31 31 31 32 32 32 33 33 34 34 34 35 35 35 34 34 34 33 33 33 33 32 32 31
18 18 19 19 20 21 22 23 24 25 26 26 27 28 28 30 31 32 33 34 35 35 36 36 36 35 35 35 35 34 34 34 34 33 33 33 32 32 33 33 32 31 31 30 31 31 31 32 32 32 32 33 34 34 35 35 35 35 35 35 35 34 34 33 33 33 32 31 30
18 18 19 20 21 22 23 24 25 25 26 27 28 29 30 31 32 33 34 34 35 35 35 35 35 35 34 34 34 34 34 33 33 33 33 32 32 32 32 33 32 32 31 31 31 31 31 32 32 32 32 33 34 34 35 35 35 35 35 35 35 34 34 33 33 33 32 31 30
18 18 19 20 21 23 24 24 25 26 27 28 28 30 31 32 33 33 34 34 35 35 35 35 34 34 34 34 34 34 33 33 33 32 32 32 32 32 32 33 33 32 32 31 31 32 32 32 32 32 32 33 33 34 35 35 35 35 35 34 34 34 34 33 32 32 32 31 30
18 19 20 21 22 23 24 25 26 27 28 29 30 31 31 32 33 34 34 34 34 34 34 34 34 33 33 33 33 33 33 33 32 32 32 32 31 31 32 32 33 33 32 32 32 32 32 32 33 32 32 33 33 34 34 34 34 34 34 34 34 33 33 33 32 32 32 31 30
19 20 21 22 23 24 25 26 27 28 29 30 30 31 32 33 33 33 33 33 33 33 33 33 33 33 33 33 33 33 33 33 32 32 31 31 31 31 31 32 33 33 33 32 32 33 33 33 33 33 33 33 33 33 33 34 34 34 34 33 32 32 32 32 32 32 31 30 29
Wind_Direction
208 208 208 209 210 211 212 214 216 220 223 226 228 230 234 238 243 250 257 265 272 278 281 284 284 284 284 285 285 287 289 291 292 293 294 295 296 297 299 300 303 305 307 308 309 310 310 310 310 310 309 309 309 309 308 308 309 309 309 310 310 310 311 311 311 312 312 312 312
209 209 209 209 210 212 213 215 218 221 224 227 230 233 236 241 246 252 260 267 273 279 282 284 285 284 284 285 286 287 289 291 292 293 294 295 296 297 299 302 304 307 309 310 311 311 311 311 311 310 310 310 309 309 309 309 309 310 310 310 310 311 311 311 312 312 312 313 313
209 209 210 211 211 213 215 217 220 223 226 229 232 235 239 243 249 255 262 269 275 280 284 285 285 285 285 286 287 288 290 291 292 293 294 295 296 298 301 304 307 309 311 312 312 312 312 311 311 310 310 310 310 309 309 309 309 310 310 310 311 311 311 312 312 313 313 313 314
210 210 211 212 213 215 217 219 222 225 228 231 234 237 241 246 251 258 264 271 277 282 285 286 286 286 286 287 288 290 291 292 292 293 294 295 297 300 304 307 309 311 312 312 312 312 312 311 311 310 310 310 310 309 309 309 309 310 310 311 311 312 312 313 313 314 314 314 315
211 212 213 214 215 217 219 222 225 228 231 233 236 239 243 248 254 260 266 272 278 283 286 288 288 287 287 288 289 290 291 292 292 293 295 296 299 303 306 309 311 312 312 312 312 312 311 311 311 310 310 310 309 309 309 309 309 310 310 311 312 313 313 314 314 315 315 315 315
212 213 214 215 216 218 221 224 227 230 233 235 238 242 246 251 256 262 267 274 279 284 287 289 288 288 288 288 290 291 291 292 292 294 295 298 301 304 307 309 311 312 312 312 311 311 311 310 310 310 309 309 309 309 309 309 309 310 311 312 313 314 314 315 315 315 315 316 316
214 214 215 216 218 220 222 225 228 231 234 237 241 244 248 253 258 263 269 275 280 285 287 288 288 287 287 288 289 290 291 292 292 294 296 299 302 305 307 309 311 311 311 311 311 310 310 310 309 309 309 309 309 309 309 309 310 311 312 313 314 314 315 315 316 315 316 316 316
215 216 217 218 220 222 225 227 230 233 236 239 243 247 251 255 260 265 270 276 281 285 287 287 287 286 286 287 288 289 290 291 293 294 297 299 302 305 307 309 310 310 310 310 309 309 309 309 308 308 308 308 308 309 309 310 310 311 312 313 314 315 315 316 316 316 316 316 316
216 217 218 220 222 224 227 230 232 235 238 242 245 249 253 257 261 266 271 277 281 285 286 286 285 285 285 286 287 288 290 291 293 295 297 299 302 305 307 309 309 309 309 309 308 308 308 308 308 308 308 308 308 309 309 310 311 312 313 313 314 315 315 316 316 316 315 316 316
217 218 219 221 223 226 229 231 234 237 240 244 247 250 254 258 263 267 272 277 281 284 285 285 284 284 284 285 286 288 289 291 292 294 297 299 302 305 307 308 309 309 308 308 308 307 307 307 307 307 308 308 308 309 310 310 311 312 312 313 314 315 315 315 315 315 315 315 315
219 220 221 223 225 228 230 233 236 239 242 245 248 252 256 260 264 269 273 277 281 283 284 283 283 282 283 284 286 287 289 290 292 294 297 299 302 305 306 308 308 308 308 308 307 307 307 307 307 307 307 308 308 309 310 310 311 311 312 313 313 314 314 315 315 315 315 315 315
220 222 223 225 227 230 232 235 238 241 244 247 250 254 257 262 266 270 274 278 280 282 282 281 281 281 282 283 285 287 288 290 292 294 297 300 303 305 307 307 308 308 308 307 307 307 307 307 307 307 307 308 308 309 310 310 311 311 312 312 313 313 314 314 314 314 314 314 314
222 224 226 228 230 232 235 237 240 243 246 248 252 255 259 263 267 271 274 277 280 281 280 280 280 280 281 283 285 287 288 290 292 295 298 300 303 305 306 307 308 308 307 307 307 307 307 306 306 306 307 307 308 308 309 309 310 310 311 311 312 312 313 313 314 314 313 313 314
224 226 228 230 232 234 237 240 242 245 247 250 253 257 261 264 268 271 274 277 278 278 278 278 279 280 282 284 285 287 289 290 293 296 299 301 304 305 307 307 307 307 307 307 307 306 306 306 306 306 306 306 307 308 308 309 309 310 310 311 311 311 312 313 313 313 313 313 313
226 228 230 232 234 236 239 241 244 246 249 252 255 258 262 265 268 272 274 276 277 277 277 277 278 280 283 284 286 288 289 291 294 297 300 302 304 306 306 307 307 307 307 306 306 305 305 305 305 305 305 305 306 307 308 308 308 309 309 310 310 311 311 312 312 312 312 312 312
227 229 231 233 235 238 240 243 245 248 250 253 256 259 263 266 269 272 274 275 275 275 276 277 279 281 283 285 286 288 290 292 295 298 301 303 305 306 306 307 307 306 306 305 305 304 304 304 304 304 304 305 305 306 307 307 307 308 308 309 309 310 311 311 312 312 312 312 312
229 231 233 235 237 240 242 244 246 249 251 254 257 260 263 266 269 272 273 274 274 274 275 277 280 282 284 286 287 289 291 293 296 299 301 303 305 306 306 306 306 305 305 304 303 303 303 302 303 303 303 304 305 305 306 306 306 307 307 308 308 309 310 310 311 311 312 312 313
230 232 234 236 239 241 243 245 248 250 252 255 258 261 264 267 269 271 272 272 273 274 275 278 281 283 285 286 288 290 292 294 297 300 302 304 305 305 305 305 305 304 303 303 302 302 301 301 301 302 303 303 304 305 305 305 306 306 306 307 308 308 309 310 311 311 312 313 313
231 233 236 238 241 243 245 246 248 251 253 256 259 261 264 267 269 270 271 271 272 274 276 279 282 284 286 287 289 291 293 295 298 300 302 304 304 305 304 304 304 303 302 302 301 301 300 300 301 301 302 303 303 304 304 305 305 305 306 306 307 308 308 309 310 311 312 312 313
233 236 238 241 243 244 245 247 249 251 254 256 259 262 265 267 269 270 270 271 273 275 278 280 282 284 286 287 289 292 294 297 299 301 303 303 304 304 303 303 302 302 301 301 300 300 300 300 300 301 302 302 303 303 303 304 304 304 305 306 306 307 308 309 310 311 312 312 313
235 238 240 242 243 243 245 246 249 251 254 257 260 263 265 267 268 269 270 271 274 276 279 281 283 284 286 288 290 293 295 298 300 301 302 303 303 303 302 302 301 301 300 299 299 299 299 300 300 301 302 302 302 302 303 303 303 304 304 305 306 307 308 309 310 311 312 312 313
237 239 240 240 241 242 244 246 249 251 254 258 261 264 266 267 268 269 271 273 275 277 280 281 283 285 287 289 291 294 297 299 300 301 302 302 302 302 301 301 300 300 299 299 299 299 299 300 300 301 301 302 302 302 302 302 303 303 304 305 306 307 309 310 311 312 312 313 313
236 237 238 238 240 242 244 246 249 252 256 259 262 264 265 267 268 270 272 274 276 278 280 282 284 286 288 290 293 295 298 299 301 301 301 301 301 301 300 300 299 299 299 298 298 299 299 300 300 301 301 301 301 301 302 302 303 304 305 306 307 308 309 310 311 312 312 313 313
234 235 236 238 239 241 244 247 250 253 257 260 262 264 265 267 269 270 273 275 277 279 282 284 285 287 290 292 294 296 298 299 300 300 300 300 300 300 299 299 299 298 298 298 298 299 299 300 300 301 301 301 301 302 302 303 304 305 306 306 308 309 310 311 311 312 313 313 313
232 233 235 237 240 242 245 248 251 254 258 260 262 264 266 267 269 271 274 276 279 281 283 285 287 289 291 294 296 298 299 299 300 299 299 299 299 299 298 298 298 298 298 298 298 299 299 300 301 301 302 302 303 303 304 304 305 306 306 307 308 309 310 311 312 312 313 312 312
231 233 236 238 240 243 246 249 252 256 258 260 262 264 266 268 270 273 275 278 280 283 285 287 289 291 293 295 297 298 299 299 299 299 298 298 298 298 298 298 298 298 298 298 298 298 299 300 301 301 302 303 303 304 304 305 305 306 307 307 308 309 310 311 312 312 312 312 311
231 233 236 239 241 244 247 250 253 256 259 261 262 265 267 270 272 275 277 280 282 284 287 288 290 292 294 296 297 297 298 298 298 298 298 298 298 298 297 297 297 297 298 298 298 298 299 299 300 301 302 302 303 303 304 304 305 306 306 307 308 309 310 310 311 311 312 311 311
232 234 236 239 242 245 248 252 254 257 259 261 264 266 269 272 275 277 280 282 284 287 288 290 292 293 295 296 296 297 297 297 297 297 298 298 298 297 297 297 297 297 297 298 298 298 298 299 300 300 301 302 302 303 303 304 305 306 306 307 308 308 309 309 310 310 310 310 310
232 234 237 240 243 246 250 253 255 258 261 263 266 270 273 276 278 281 283 285 287 288 290 291 293 294 295 296 296 296 296 296 297 297 297 297 297 297 297 297 297 297 298 298 298 298 298 299 299 300 301 301 302 302 303 304 305 305 306 307 307 308 308 309 309 309 309 309 309
232 234 237 241 245 248 251 254 257 260 263 267 270 274 277 280 282 284 286 287 288 290 291 292 293 294 294 295 295 295 296 296 296 297 297 297 297 297 297 297 297 298 298 298 298 298 299 299 300 300 301 301 302 302 303 304 304 305 306 306 307 307 307 308 308 308 308 308 307
232 235 239 243 246 250 253 257 260 264 268 272 275 278 281 283 285 286 288 289 290 291 292 293 293 294 294 294 294 295 295 296 296 297 297 297 297 297 297 297 297 298 298 299 299 298 299 299 300 300 301 302 302 302 303 303 304 304 305 305 306 306 307 307 307 307 306 306 306
232 237 241 245 248 252 256 260 265 269 273 277 279 282 284 285 287 288 289 290 291 292 292 293 293 293 294 294 294 295 296 296 296 297 297 297 297 297 297 297 297 298 299 299 299 299 299 299 300 301 301 302 302 302 302 302 303 303 304 305 305 305 306 306 305 305 305 305 304
234 239 243 247 251 256 261 265 270 274 278 280 283 284 286 288 289 290 291 291 292 292 292 292 293 293 293 294 294 295 295 296 296 296 296 296 296 296 297 297 298 299 299 300 299 299 300 300 301 301 302 302 302 301 301 302 302 303 303 304 304 305 305 304 304 304 304 303 303
237 242 246 251 255 261 266 271 275 278 281 283 285 286 288 289 290 291 291 292 292 292 292 292 292 293 293 294 294 295 295 295 295 296 296 296 296 296 297 297 298 299 300 300 300 300 300 301 301 302 302 302 301 301 301 301 302 302 303 303 304 304 304 304 303 303 302 302 302
241 245 250 255 261 266 271 275 278 281 283 285 287 288 290 291 291 291 291 291 292 292 292 292 293 293 294 294 294 295 295 295 295 295 296 296 296 297 297 298 299 300 300 301 301 301 301 302 302 302 302 301 301 301 301 301 301 302 302 302 303 303 303 303 302 302 301 301 302
245 250 255 261 266 271 275 278 281 283 285 287 288 290 291 291 292 291 291 291 291 292 292 292 293 293 294 294 294 295 295 295 295 295 296 296 297 297 298 298 299 300 301 302 302 302 302 302 302 302 302 301 301 300 301 301 301 301 301 302 302 302 302 302 301 301 301 301 302
249 255 260 266 271 275 279 281 284 286 287 289 290 291 291 291 291 291 291 291 291 292 292 292 293 293 293 294 294 294 294 294 295 296 296 297 298 298 299 299 300 301 302 303 303 303 303 303 303 303 302 301 301 300 300 300 300 300 300 301 301 301 301 301 301 300 300 301 302
255 261 267 272 276 280 283 285 286 288 289 290 291 291 290 290 290 291 291 291 291 291 292 292 293 293 293 294 294 294 294 294 295 296 297 298 299 300 300 301 302 303 304 305 305 305 304 304 304 303 302 301 300 300 300 299 299 299 299 299 300 300 300 300 300 300 301 301 302
263 269 274 278 281 283 286 287 288 289 290 290 290 290 290 290 290 290 291 291 291 292 292 292 293 293 293 294 293 294 294 295 296 297 299 300 300 301 301 302 303 304 305 306 306 306 305 305 304 303 302 301 299 299 298 298 298 298 298 298 299 300 300 300 300 300 301 301 302
272 276 280 282 284 286 287 288 289 289 289 290 290 290 290 290 290 291 291 291 292 292 293 293 293 294 294 294 294 294 295 296 297 299 300 301 302 302 303 304 305 306 307 307 307 307 306 305 304 303 302 300 298 297 297 296 296 296 296 297 298 298 299 300 300 300 301 302 303
278 281 283 285 286 287 288 288 289 289 289 290 290 290 291 291 291 291 292 292 292 293 293 293 294 294 294 294 295 295 296 298 299 300 301 302 303 303 304 305 306 307 307 308 308 307 306 305 304 302 301 299 297 296 295 294 294 294 295 296 297 297 298 299 300 300 301 302 303